Regional Weather Roundup
Issued by NWS Kansas City/Pleasant Hill, MO

Home | Current Version | Previous Version | Graphics & Text | Print | Product List | Glossary Off
Versions: 1 2 3 4 5 6 7 8 9 10 11 12 13 14 15 16 17 18 19 20 21 22 23 24 25 26 27 28 29 30 31 32 33 34 35 36 37 38 39 40 41 42 43 44 45 46 47 48 49 50

647
ASUS43 KEAX 261210
RWREAX

WEATHER ROUNDUP FOR EASTERN KANSAS AND NORTHWEST MISSOURI
NATIONAL WEATHER SERVICE KANSAS CITY/PLEASANT HILL MO
700 AM CDT FRI MAY 26 2017

KSZ040-057-103>105-MOZ028-029-037-043-261300-
...KANSAS CITY METROPOLITAN AREA...

CITY           SKY/WX    TMP DP  RH WIND       PRES   REMARKS
K.C. INTL      MOSUNNY   64  60  87 NW5       29.70R
6HR MIN TEMP:  61; 6HR MAX TEMP:  66; 6HR PCP:  0.04;

K.C. DOWNTOWN  SUNNY     66  61  84 NW6       29.68R
6HR MIN TEMP:  65; 6HR MAX TEMP:  69; 6HR PCP: TRACE;

LEES SUMMIT    MOSUNNY   65  62  90 N7        29.68R
6HR MIN TEMP:  63; 6HR MAX TEMP:  67; 6HR PCP:  0.10;

OLATHE - IXD   SUNNY     64  60  87 CALM      29.68R
6HR MIN TEMP:  63; 6HR MAX TEMP:  66; 6HR PCP:  0.01;

OLATHE - OJC   SUNNY     63  61  93 NW6       29.67R
6HR MIN TEMP:  61; 6HR MAX TEMP:  65; 6HR PCP: TRACE;

LAWRENCE       CLEAR     63  61  93 N5        29.69R

$$

MOZ001>008-011>017-020>025-030>033-038>040-044>046-053-054-261300-
...NORTHERN AND CENTRAL MISSOURI...

CITY           SKY/WX    TMP DP  RH WIND       PRES   REMARKS
ST. JOSEPH     SUNNY     62  61  96 CALM      29.68R
6HR MIN TEMP:  59; 6HR MAX TEMP:  69; 6HR PCP: TRACE;

MOSBY          SUNNY     63  59  88 CALM      29.69R
WARRENSBURG    MOSUNNY   63  59  88 SW6       29.65R
WHITEMAN AFB   MOSUNNY   65  65 100 S8        29.64R
6HR MIN TEMP:  62; 6HR MAX TEMP:  65; 6HR PCP:  0.03;

CLINTON        SUNNY     63  63 100 SE13      29.64F
SEDALIA        SUNNY     64  62  93 S21       29.64F
6HR MIN TEMP:  62; 6HR MAX TEMP:  65; 6HR PCP:  0.02;

WARSAW         NOT AVBL
CHILLICOTHE      N/A     61  59  93 E6        29.70R
6HR MIN TEMP:  61; 6HR MAX TEMP:  65; 6HR PCP:  0.26;

KIRKSVILLE     CLOUDY    60  57  89 SE10      29.66R
6HR MIN TEMP:  58; 6HR MAX TEMP:  62; 6HR PCP:  0.10;


$$

MOZ041-047>049-056>058-063>065-088>090-097-261300-
...EASTERN AND SOUTHERN MISSOURI...

CITY           SKY/WX    TMP DP  RH WIND       PRES   REMARKS
ST. LOUIS INTL CLOUDY    67  56  67 S5        29.81R
6HR MIN TEMP:  63; 6HR MAX TEMP:  69;

SPIRIT OF STL  PTSUNNY   60  58  92 CALM      29.81R
COLUMBIA       CLOUDY    62  59  90 SE7       29.71F
JEFFERSON CITY CLOUDY    65  57  75 SE7       29.70S
ROLLA          LGT RAIN  62  60  93 SE20G31   29.67F
OSAGE BEACH    PTSUNNY   62  60  93 S10       29.74R
SPRINGFIELD    PTSUNNY   67  60  78 SE15      29.73R
BRANSON        PTSUNNY   63  59  88 E12G18    29.76S
JOPLIN         MOCLDY    66  61  84 E7        29.69R
WEST PLAINS    CLOUDY    64  60  87 SE7       29.80R

$$

IAZ060-094-KSZ022-034>040-054-083-096-NEZ052-066-093-261300-
...KANSAS...SOUTHEAST NEBRASKA AND IOWA...

CITY           SKY/WX    TMP DP  RH WIND       PRES   REMARKS
TOPEKA         CLEAR     61  61 100 SE3       29.69R
6HR MIN TEMP:  60; 6HR MAX TEMP:  66; 6HR PCP:  0.05;

MANHATTAN      CLEAR     59  58  96 CALM      29.70R
EMPORIA        CLEAR     62  60  93 CALM      29.67R
CHANUTE        PTCLDY    65  59  81 SE10      29.64S
WICHITA        PTCLDY    64  61  90 N15       29.67R
OMAHA          CLOUDY    63  57  81 SE3       29.69R
LINCOLN        CLOUDY    63  58  83 NW7       29.72R
FALLS CITY     PTCLDY    58  57  97 NW3       29.69R
LAMONI         LGT RAIN  60  56  86 S7        29.70R FOG
DES MOINES     CLOUDY    61  53  75 E6        29.69R

$$





USA.gov is the U.S. government's official web portal to all federal, state and local government web resources and services.